Home   Weather   Iqaluit   Past weeks
Flag for Canada

Past Weather in Iqaluit, Nunavut, Canada — Yesterday and Last 2 Weeks

Now
-22 °F

Scattered clouds.


Feels Like: -36 °F
Forecast: -19 / -32 °F
Wind: 5 mph from Northwest

Location: Iqaluit

Current Time: Mar 20, 2019 at 11:39:33 am

Latest Report: Mar 20, 2019 at 11:00 am


Visibility: 30 mi

Pressure: 29.73 "Hg

Humidity: 62%

Dew Point: -31 °F

Location of IqaluitLocation

Past Weather in Iqaluit — Graph

°F

Iqaluit Temperature Yesterday

Maximum temperature yesterday: -11 °F (at 1:00 pm)
Minimum temperature yesterday: -27 °F (at 1:00 am)
Average temperature yesterday: -19 °F

High & Low Weather Summary for the Past Weeks

 TemperatureHumidityPressure
High9 °F (Mar 15, 11:00 pm)84% (Mar 5, 12:00 pm)30.27 "Hg (Mar 5, 12:00 pm)
Low-29 °F (Mar 20, 1:00 am)51% (Mar 16, 12:00 am)29.31 "Hg (Mar 7, 11:00 pm)
Average-12 °F69%29.79 "Hg
* Reported Mar 5 9:00 am — Mar 20 10:00 am, Iqaluit. Weather by CustomWeather, © 2019

Note: Actual official high and low records may vary slightly from our data, if they occured in-between our weather recording intervals... More about our weather records

Advertising

Iqaluit Weather History for the Previous 24 Hours

Scroll right to see more
 ConditionsComfort  
Time TempWeatherWind HumidityBarometerVisibility
10:00 am
Wed, Mar 20
-24 °FScattered clouds.6 mph61%29.72 "Hg30 mi
9:00 am-26 °FScattered clouds.No wind61%29.73 "Hg30 mi
8:00 am-27 °FSunny.8 mph67%29.72 "Hg30 mi
7:00 am-29 °FSnow flurries. Sunny.8 mph60%29.71 "Hg30 mi
6:00 am-26 °FSnow flurries. Passing clouds.16 mph61%29.70 "Hg15 mi
5:19 am-27 °FSnow flurries. Clear.15 mph67%29.70 "Hg15 mi
5:00 am-27 °FClear.12 mph61%29.70 "Hg15 mi
4:46 am-27 °FClear.13 mph67%29.70 "Hg15 mi
4:00 am-29 °FSnow flurries. Clear.15 mph67%29.70 "Hg15 mi
3:00 am-29 °FSnow flurries. Clear.12 mph67%29.70 "Hg10 mi
2:00 am-29 °FSnow flurries. Clear.10 mph67%29.70 "Hg6 mi
1:30 am-29 °FSnow flurries. Clear.5 mph67%29.70 "Hg6 mi
1:00 am-29 °FClear.9 mph67%29.69 "Hg15 mi
12:00 am-27 °FPassing clouds.9 mph61%29.69 "Hg15 mi
11:00 pm
Tue, Mar 19
-27 °FPassing clouds.2 mph67%29.71 "Hg15 mi
10:00 pm-27 °FPassing clouds.10 mph67%29.71 "Hg15 mi
9:00 pm-24 °FPassing clouds.9 mph68%29.71 "Hg15 mi
8:00 pm-22 °FPassing clouds.14 mph68%29.70 "Hg15 mi
7:00 pm-20 °FPassing clouds.9 mph68%29.69 "Hg20 mi
6:00 pm-15 °FPassing clouds.13 mph63%29.68 "Hg30 mi
5:00 pm-13 °FLow level haze.17 mph63%29.66 "Hg30 mi
4:00 pm-11 °FLow level haze.17 mph58%29.67 "Hg30 mi
3:00 pm-11 °FScattered clouds.15 mph63%29.67 "Hg30 mi
2:14 pm-11 °FPartly sunny.10 mph63%29.67 "Hg20 mi
2:00 pm-11 °FSnow flurries. Scattered clouds.9 mph63%29.68 "Hg20 mi
1:00 pm-11 °FSnow flurries. Passing clouds.7 mph63%29.68 "Hg25 mi
12:00 pm-13 °FSnow flurries. Partly sunny.6 mph63%29.70 "Hg4 mi
11:48 am-13 °FSnow flurries. Broken clouds.5 mph63%29.69 "Hg4 mi
11:00 am-15 °FSnow flurries. Partly sunny.No wind63%29.70 "Hg20 mi
Weather by CustomWeather, © 2019

See weather overview